www.pogodaiklimat.ru

Погода и климат >> Архив погоды >> Канада >> Borden


ПОГОДА в Borden

  • Прогноз погоды в Borden
  • Монитор погоды в Borden
  • Климат города

АРХИВ ПОГОДЫ в Borden

Время (UTC), дата Ветер
(напр.,м/с)
 
Видим.   Явления Облачность Т
(С)
Тd
(С)
f
(%)
Тe
(С)
Тes
(С)
Комфортность P
(гПа)
Po
(гПа)
Тmin
(С)
Tmax
(С)
R
(мм)
R24
(мм)
S
(см)
00 14.09 ЮВ 3 14 км ясно +20.6 +17.3 81 +25 +25 комфорт 1022.9 996.2 +9.0 +27.5
03 14.09 Ю 2 14 км ясно +16.2 +15.3 94 +16 +16 1023.2 996.6
06 14.09 штиль 0 14 км ясно +14.5 +14.2 98 +14 +14 1022.6 996.0 +9.0 +27.5
09 14.09 штиль 0 14 км 5/5 600 м
[]
+13.3 +13.3 100 +13 +13 1022.4 995.8
12 14.09 штиль 0 14 км ясно +15.7 +15.3 97 +15 +16 1022.9 996.3 +12.9 +27.5
15 14.09 0 н/о +23.0 +20.1 84 +30 +30 очень
душно
1022.0 995.5
18 14.09 ЮВ 3 14 км 5/5 600 м
[]
+29.6 +21.0 60 +37 +42 очень
душно
1020.6 994.2 +12.9 +29.6
21 14.09 Ю 4 14 км 5/5 1000 м
[]
+29.7 +20.6 58 +37 +38 очень
душно
1019.6 993.2
00 15.09 СЗ 1 14 км 5/5 1000 м
[]
+22.1 +19.8 87 +28 +28 душно 1020.4 993.9 +12.9 +30.4
03 15.09 штиль 0 14 км 10/10 600 м
[]
+20.0 +19.2 95 +23 +23 комфорт 1021.4 995.0
06 15.09 штиль 0 900 м 9/0
[]
+17.6 +17.2 98 +18 +18 1021.2 994.8 +12.9 +30.4
09 15.09 В 1 300 м ?/? +16.3 +16.3 100 +17 +17 1021.6 995.2
15 15.09 С 2 14 км 9/9 600 м
[]
+23.5 +20.3 82 +29 +30 душно 1023.4 996.9
18 15.09 С 3 14 км 5/5 600 м
[]
+26.4 +20.6 70 +33 +37 очень
душно
1022.5 996.0
21 15.09 С 2 14 км ясно +28.2 +20.7 64 +35 +39 очень
душно
1021.3 994.9
00 16.09 штиль 0 14 км 5/5 1000 м
[]
+21.6 +19.2 86 +27 +27 душно 1021.9 995.4 +29.2
03 16.09 штиль 0 14 км 9/9 600 м
[]
+18.2 +17.4 95 +19 +19 1022.9 996.4
06 16.09 штиль 0 1200 м ясно +16.9 +16.5 97 +17 +17 1022.8 996.3
09 16.09 штиль 0 300 м 10/10 <50 м
[]
+14.9 +14.8 99 +15 +15 1022.8 996.3
12 16.09 штиль 0 12 км 5/0 2000 м
[]
+16.1 +16.0 99 +16 +16 1023.7 997.1 +13.0
15 16.09 ЮВ 1 14 км ясно +26.1 +20.3 70 +32 +41 очень
душно
1023.3 996.8
18 16.09 Ю 3 14 км 5/5 1000 м
[]
+29.8 +19.0 52 +35 +40 очень
душно
1021.7 995.3 +13.0 +30.6
21 16.09 ЮВ 4 14 км 5/5 1000 м
[]
+30.3 +19.2 51 +36 +37 очень
душно
1019.5 993.1
00 17.09 ЮВ 3 14 км ясно +22.6 +17.7 74 +28 +28 душно 1019.3 992.8 +13.0 +30.7
03 17.09 Ю 3 14 км ясно +20.5 +18.5 88 +25 +25 комфорт 1019.4 993.1
06 17.09 Ю 2 11 км ясно +17.3 +16.6 96 +18 +18 1018.2 991.9 +13.0 +30.7
09 17.09 штиль 0 100 м 9/0
[]
+15.6 +15.4 99 +15 +15 1016.8 990.5
12 17.09 ЮВ 2 14 км ясно +18.9 +18.2 96 +21 +22 комфорт 1016.9 990.5 +14.7 +30.7
15 17.09 ЮЗ 3 14 км 9/9 1000 м
[]
+25.2 +19.0 69 +30 +31 душно 1015.5 989.3
18 17.09 Ю 4 14 км 5/5 1000 м
[]
+28.9 +18.2 52 +34 +38 очень
душно
1013.5 987.3 +14.7 +29.7
21 17.09 Ю 4 14 км 5/5 1000 м
[]
+29.3 +18.1 51 +34 +35 очень
душно
1011.2 985.1
00 18.09 Ю 4 14 км ясно +24.2 +18.8 72 +29 +29 душно 1010.6 984.4
03 18.09 Ю 1 14 км 5/5 600 м
[]
+19.3 +17.8 91 +22 +22 комфорт 1011.3 985.1
06 18.09 З 1 14 км 9/9 1500 м
[]
+17.5 +16.8 96 +19 +19 1011.1 985.0
09 18.09 штиль 0 1600 м ясно +16.7 +16.3 97 +17 +17 1010.1 984.0
12 18.09 СЗ 2 14 км 10/10 300 м
[]
+19.2 +18.2 94 +22 +22 комфорт 1011.4 985.2 +14.7
15 18.09 СЗ 3 14 км 9/9 600 м
[]
+22.9 +17.5 72 +28 +29 душно 1011.7 985.5
18 18.09 С 5 14 км ясно +21.1 +15.0 68 +24 +30 комфорт 1012.0 985.7 +23.4
21 18.09 С 6 14 км ясно +19.1 +14.3 74 +20 +22 1012.1 985.7
00 19.09 СЗ 4 14 км 10/10 300 м
[]
+15.7 +13.0 84 +15 +15 1014.2 987.7 +14.7 +23.4
03 19.09 СЗ 2 14 км 5/5 300 м
[]
+14.2 +12.5 90 +14 +14 1014.0 987.6
06 19.09 С 2 14 км ясно +13.2 +12.0 92 +13 +13 1015.0 988.5 +13.2 +23.4 220
09 19.09 СЗ 1 14 км ясно +10.6 +10.3 98 +10 +10 1015.9 989.3
12 19.09 С 2 14 км 10/10 300 м
[]
+11.6 +11.3 98 +11 +11 1017.9 991.2 +9.0 +23.4
15 19.09 С 3 14 км 5/5 300 м
[]
+15.8 +10.8 72 +15 +18 1018.7 992.0
18 19.09 С 4 14 км ясно +19.0 +9.6 54 +20 +28 1019.1 992.5 +9.0 +20.0
21 19.09 С 3 14 км ясно +18.6 +7.8 49 +19 +22 1018.6 991.9
00 20.09 С 1 14 км ясно +11.2 +8.4 83 +11 +11 1019.8 992.9 +9.0 +20.1
03 20.09 штиль 0 14 км ясно +8.2 +7.4 95 +7 +7 1020.6 993.7
06 20.09 штиль 0 14 км ясно +7.2 +6.9 98 +6 +6 1020.7 993.9 +6.7 +20.1
09 20.09 Ю 1 14 км ясно +9.4 +8.6 95 +9 +9 1020.4 993.6
12 20.09 штиль 0 14 км 5/5 600 м
[]
+11.6 +10.7 94 +11 +11 1022.2 995.2 +5.8 +20.1
15 20.09 ЮВ 4 14 км 9/9 1500 м
[]
+16.4 +13.5 83 +16 +16 1022.8 995.9
18 20.09 ЮВ 5 14 км 9/9 600 м
[]
+18.5 +13.7 74 +19 +19 1021.4 994.5 +5.8 +19.0

 

Местоположение метеостанции Borden (Канада): широта 44.25 долгота -79.91 высота над уровнем моря 223 м.

В архиве по умолчанию представлена погода в Borden за последнюю неделю. Архивные данные за месяц целиком и за предыдущие месяцы, начиная с января 2011 года, Вы можете получить, выбрав интересующий диапазон дат из раскрывающегося списка и нажав кнопку "Ввод!".


*Определитесь, кто Вы:
робот инопланетянин человек

Внимание! Время в таблицах - всемирное. Для получения местного времени необходимо прибавить поправку, которая в Borden равна -5 ч.

Смотрите также архив погоды в соседних городах и на ближайших метеорологических станциях:

Погода в Egbert (Канада) (11 км)
Погода в Barrie (Канада) (18 км)
Погода в Collingwood (Канада) (37 км)
Погода в Barrie-oro (Канада) (38 км)
Погода в Toronto Buttonville (Канада) (61 км)
Погода в Buttonville (Канада) (61 км)
Погода в Toronto Aes Hq (Канада) (63 км)
Погода в Lagoon City (Канада) (64 км)
Погода в Beausoleil Isl (aut) (Канада) (67 км)
Погода в Toronto (Канада) (68 км)

Пояснения к столбцам:

Ветер - указаны скорость ветра в м/с - средняя за 10 мин, порывы в срок и между сроками (в фигурных скобках) и направление, откуда дует ветер: С - северный, СВ - северо-восточный, В - восточный, ЮВ - юго-восточный, Ю - южный, ЮЗ - юго-западный, З - западный, СЗ - северо-западный.
Видимость - горизонтальная дальность видимости в метрах или километрах. При видимости от 1 до 10 км при отсутствии осадков обычно наблюдается дымка, при ухудшении видимости до 1 км и менее - туман. В сухую погоду видимость может ухудшаться дымом, пылью или мглою.
Явления - указаны атмосферные явления, наблюдавшиеся в срок или в последний час перед сроком; фигурными скобками обозначены явления, наблюдавшиеся между сроками (за 1-3 часа до срока); квадратными скобками обозначены град или гололедные отложения с указанием их диаметра в мм.
Облачность - указаны через наклонную черту общая и нижняя облачность в баллах и высота нижней границы облаков в метрах; квадратными скобками обозначены формы облаков: Ci - перистые, Cs - перисто-слоистые, Cc - перисто-кучевые, Ac - высококучевые, As - высокослоистые, Sc - слоисто-кучевые, Ns - слоисто-дождевые, Cu - кучевые, Cb - кучево-дождевые. Подробнее классификацию облаков см. в Атласе облаков (PDF).
T - Температура воздуха - температура, измеренная на высоте 2 м над землей.
Td - Температура точки росы - температура, при понижении до которой содержащийся в воздухе водяной пар достигнет насыщения.
f - Относительная влажность воздуха - влажноcть воздуха, измеренная на высоте 2 м над землей.
Te - Эффективная температура - температура, которую ощущает одетый по сезону человек в тени. Характеристика душности погоды. При расчете учитывается влияние влажности воздуха и скорости ветра на теплоощущения человека.
Tes - Эффективная температура на солнце - температура, которую ощущает человек, с поправкой на солнечный нагрев. Характеристика знойности погоды. Зависит от высоты солнца над горизонтом, облачности и скорости ветра. Ночью, в пасмурную погоду, а также при ветре 12 м/с и более поправка равна нулю.
P - Атмосферное давление - приведенное к уровню моря атмосферное давление.
Po - Атмосферное давление - измеренное на уровне метеостанции атмосферное давление.
Tmin - Минимальная температура - минимум температуры воздуха на высоте 2 м над землей.
Tmax - Максимальная температура - максимум температуры воздуха на высоте 2 м над землей.
R - Количество осадков - Количество выпавших осадков за период времени, мм. При наведении курсора мыши на число - период времени, за который выпало указанное количество осадков.
R24 - Количество осадков - Количество выпавших осадков за 24 часа, мм.
S - Снежный покров - Высота снежного покрова, см. При наведении курсора мыши на число - состояние снежного покрова и степень покрытия местности в баллах.